Location: Lecco
(45.8566°N, 9.3977°E)
Time: 12:02:48
(UTC+02:00)

ISS - Pass Details

Date: 16 July 2018
Orbit: 402 x 408 km, 51.6° (Epoch: 21 July)

Event Time Altitude Azimuth Distance (km) Brightness Sun altitude
Exits shadow 02:31:59 19° 295° (WNW) 1,060 -1.7 -21.2°
Maximum altitude 02:33:50 33° 349° (N) 715 -2.1 -21.1°
Drops below altitude 10° 02:36:52 10° 56° (NE) 1,472 -0.3 -21.0°
Sets 02:39:05 0° 66° (ENE) 2,335 0.6 -20.9°
